Regional Weather Roundup
Issued by NWS

Home | Current Version | Previous Version | Graphics & Text | Print | Product List | Glossary On
Versions: 1 2 3 4 5 6 7 8 9 10 11 12 13 14 15 16 17 18 19 20 21 22 23 24 25 26 27 28 29 30 31 32 33 34 35 36 37 38 39 40 41 42 43 44 45 46 47 48 49 50
842
ASUS45 KBOI 230010
RWRID

IDAHO REGIONAL WEATHER ROUNDUP
NATIONAL WEATHER SERVICE BOISE ID
500 PM MST WED NOV 22 2017

NOTE: "FAIR" INDICATES FEW OR NO CLOUDS BELOW 12000 FEET
WITH NO SIGNIFICANT WEATHER AND/OR OBSTRUCTIONS TO VISIBILITY

IDZ012-014-230100-
SOUTHWEST IDAHO


CITY           SKY/WX    TMP DP  RH WIND       PRES   REMARKS
BOISE          CLOUDY    59  50  72 SE5       30.23F
CALDWELL       CLOUDY    52  51  97 NW3       30.24F FOG
MOUNTAIN HOME  CLOUDY    59  55  86 E9        30.24F
$$

IDZ016-017-230100-
SOUTHCENTRAL IDAHO


CITY           SKY/WX    TMP DP  RH WIND       PRES   REMARKS
BURLEY         PTCLDY    59  46  62 SE3       30.31F
JEROME         MOCLDY    59  49  69 NE7       30.31F
TWIN FALLS     MOCLDY    58  47  66 E5        30.32S
$$

IDZ019>023-230100-
SOUTHEAST IDAHO


CITY           SKY/WX    TMP DP  RH WIND       PRES   REMARKS
IDAHO FALLS    CLOUDY    48  44  86 N7        30.37S
POCATELLO      CLOUDY    58  44  60 S13       30.35S
REXBURG        CLOUDY    47  43  86 NE3       30.36F
$$

IDZ006-010-011-018-031-032-230100-
CENTRAL IDAHO MOUNTAINS


CITY           SKY/WX    TMP DP  RH WIND       PRES   REMARKS
MCCALL         FOG       46  45  96 CALM      30.27S VSB 3/4
HAILEY         PTCLDY    52  46  82 CALM      30.36F
STANLEY          N/A     39  37  92 S3        30.38F
SALMON         PTCLDY    41  40  96 CALM      30.32S
CHALLIS        PTCLDY    49  40  71 CALM      30.30S
$$

IDZ002-004-006-007-026-230100-
NORTHERN IDAHO


CITY           SKY/WX    TMP DP  RH WIND       PRES   REMARKS
LEWISTON       CLOUDY    58  55  90 E3        30.09F
LOWELL           N/A     47  46  97 N3        30.22F
COEUR D`ALENE  CLOUDY    55  52  89 S10       30.10F
MULLAN PASS    LGT RAIN  43  41  93 VRB6      30.19S VSB 1/2
$$




USA.gov is the U.S. government's official web portal to all federal, state and local government web resources and services.